Change the Weather History Date:

Friday, March 8, 2013

  Actual Average Record
Temperature  
Mean Temperature 36 °F 45 °F  
Max Temperature 45 °F 55 °F 81 °F (2000)
Min Temperature 27 °F 35 °F 9 °F (1996)
Degree Days  
Heating Degree Days 29 20  
Month to date heating degree days 263 172  
Since 1 July heating degree days 3489 3472  
Cooling Degree Days 0 0  
Month to date cooling degree days 0 0  
Year to date cooling degree days 0 0  
Moisture  
Dew Point 25 °F    
Average Humidity 67    
Maximum Humidity 85    
Minimum Humidity 49    
Precipitation  
Precipitation 0.00 in 0.13 in 2.04 in (1995)
Month to date precipitation 1.37 1.06  
Year to date precipitation 9.01 8.42  
Snow  
Snow 0.00 in 0.10 in 5.60 in (1995)
Month to date snowfall 5.8 1.0  
Since 1 July snowfall 15.1 20.6  
Snow Depth T in    
Sea Level Pressure  
Sea Level Pressure 30.39 in    
Wind  
Wind Speed 1 mph (North)    
Max Wind Speed 7 mph    
Max Gust Speed 14 mph    
Visibility 10 miles    
Events      
T = Trace of Precipitation, MM = Missing Value Source: NWS Daily Summary

Daily Weather History Graph

Daily Weather History Graph

Search for Another Location

Airport or City:

Trip Planner

Search our weather history database for the weather conditions in past years. The results will help you decide how hot, cold, wet, or windy it might be!

Date:

Astronomy

Mar. 08, 2013 Rise Set
Actual Time 6:54 AM EST 6:34 PM EST
Civil Twilight 6:28 AM EST 7:00 PM EST
Nautical Twilight 5:57 AM EST 7:30 PM EST
Astronomical Twilight 5:27 AM EST 8:01 PM EST
Moon 4:34 AM EST (3/8) 3:30 PM EST (3/8)
Length of Visible Light 12h 32m
Length of Day
11h 39m
Waning Crescent, 12% of the Moon is Illuminated
Mar 8
Waning Crescent
Mar 11
New
Mar 19
First Quarter
Mar 27
Full
Apr 3
Last Quarter

Hourly Weather History & Observations

Time (EST) Temp. Windchill Dew Point Humidity Pressure Visibility Wind Dir Wind Speed Gust Speed Precip Events Conditions
12:25 AM 30.2 °F - 24.8 °F 80% 30.33 in 10.0 mi Calm Calm - N/A   Mostly Cloudy
12:38 AM 28.4 °F - 24.8 °F 86% 30.33 in 10.0 mi Calm Calm - N/A   Scattered Clouds
12:53 AM 30.0 °F - 25.0 °F 82% 30.37 in 10.0 mi Calm Calm - N/A   Clear
1:53 AM 28.9 °F - 24.1 °F 82% 30.37 in 10.0 mi Calm Calm - N/A   Clear
2:53 AM 28.0 °F 24.2 °F 23.0 °F 81% 30.37 in 10.0 mi West 3.5 mph - N/A   Clear
3:53 AM 28.9 °F 23.9 °F 23.0 °F 78% 30.37 in 10.0 mi West 4.6 mph - N/A   Clear
4:53 AM 28.0 °F - 21.9 °F 78% 30.37 in 10.0 mi Calm Calm - N/A   Clear
5:53 AM 28.9 °F - 23.0 °F 78% 30.39 in 10.0 mi Calm Calm - N/A   Clear
6:53 AM 28.0 °F - 23.0 °F 81% 30.43 in 10.0 mi Calm Calm - N/A   Clear
7:53 AM 28.0 °F 24.2 °F 25.0 °F 88% 30.45 in 9.0 mi Variable 3.5 mph - N/A   Overcast
8:53 AM 32.0 °F 27.5 °F 27.0 °F 82% 30.44 in 9.0 mi NNE 4.6 mph - N/A   Clear
9:53 AM 35.1 °F - 28.9 °F 78% 30.45 in 10.0 mi Calm Calm - N/A   Partly Cloudy
10:06 AM 33.8 °F 28.6 °F 28.4 °F 81% 30.42 in 10.0 mi NE 5.8 mph - N/A   Mostly Cloudy
10:27 AM 35.6 °F 31.7 °F 28.4 °F 75% 30.41 in 10.0 mi NE 4.6 mph - N/A   Mostly Cloudy
10:53 AM 35.1 °F 31.0 °F 28.0 °F 76% 30.45 in 10.0 mi NE 4.6 mph - N/A   Overcast
11:53 AM 37.9 °F - 28.9 °F 70% 30.43 in 10.0 mi Calm Calm - N/A   Mostly Cloudy
12:53 PM 37.9 °F - 27.0 °F 65% 30.43 in 10.0 mi Calm Calm - N/A   Mostly Cloudy
1:25 PM 37.4 °F 33.8 °F 26.6 °F 65% 30.38 in 10.0 mi Variable 4.6 mph - N/A   Scattered Clouds
1:53 PM 41.0 °F - 27.0 °F 57% 30.41 in 10.0 mi Calm Calm - N/A   Partly Cloudy
2:53 PM 42.1 °F 40.2 °F 27.0 °F 55% 30.40 in 10.0 mi Variable 3.5 mph - N/A   Scattered Clouds
3:53 PM 44.1 °F 42.5 °F 27.0 °F 51% 30.40 in 10.0 mi WNW 3.5 mph - N/A   Clear
4:53 PM 43.0 °F - 27.0 °F 53% 30.36 in 10.0 mi Calm Calm - N/A   Clear
5:53 PM 42.1 °F 40.2 °F 25.0 °F 51% 30.37 in 10.0 mi Variable 3.5 mph - N/A   Clear
6:53 PM 39.0 °F - 24.1 °F 55% 30.37 in 10.0 mi Calm Calm - N/A   Clear
7:53 PM 39.9 °F - 24.1 °F 53% 30.38 in 10.0 mi Calm Calm - N/A   Clear
8:53 PM 39.0 °F 36.8 °F 24.1 °F 55% 30.39 in 10.0 mi SE 3.5 mph - N/A   Clear
9:53 PM 37.0 °F - 23.0 °F 57% 30.39 in 10.0 mi Calm Calm - N/A   Clear
10:53 PM 36.0 °F - 24.1 °F 62% 30.37 in 10.0 mi Calm Calm - N/A   Clear
11:53 PM 36.0 °F - 23.0 °F 59% 30.38 in 10.0 mi Calm Calm - N/A   Clear